Location: Bougoudala
(13.2282°N, 4.9477°W)
Time: 23:56:34
(UTC+00:00)

Ariane Rocket - Pass Details

Date: 29 January 2020
Orbit: 761 x 769 km, 98.7° (Epoch: 19 February)

Event Time Altitude Azimuth Distance (km) Brightness Sun altitude
Rises 18:55:11 0° 130° (SE) 3,215 5.9 -9.2°
Reaches altitude 10° 18:58:23 10° 109° (ESE) 2,291 5.0 -10.0°
Maximum altitude 19:01:17 16° 73° (ENE) 1,933 4.4 -10.7°
Drops below altitude 10° 19:04:12 10° 38° (NE) 2,295 5.0 -11.3°
Sets 19:07:24 0° 16° (NNE) 3,223 5.9 -12.1°
